Dades meteomassalio
Diari Summary for Maig 29, 2017 Units:  Metric    English   Both
« Previous Day
Next Day »
Diari Semanal Mensual Anual Personalitzat
  Maxima: Minima: Mijana:
Temperatura: 28.4 °C 15.0 °C 22.1 °C
Rosada: 14.7 °C 1.8 °C 9.9 °C
Humitat: 82 % 20 % 51 %
Velocitat del vent: 35.2 km/h 0.0 km/h 9.8 km/h
Racha vent: 35.2 km/h - -
Vent:- - SSE
Pressio: 1016.5 hPa 1012.1 hPa -
Pluja: 0.0 mm    
Historical Graphs
 
 
Tabular Data for Maig 29, 2017
Time Temperature Dew Point Pressure Wind Wind Speed Wind Gust Humidity Rainfall Rate (Hourly) solar Conditions
00:02 20.0 °C 13.7 °C 1016.5 hPa Calm     67 % 0.0 mm 0.0 W/m2 CLR
00:07 20.0 °C 13.7 °C 1016.1 hPa Calm     67 % 0.0 mm 0.0 W/m2 CLR
00:12 19.9 °C 13.8 °C 1016.1 hPa Calm     68 % 0.0 mm 0.0 W/m2 CLR
00:17 19.8 °C 13.9 °C 1016.1 hPa Calm     69 % 0.0 mm 0.0 W/m2 CLR
00:22 19.7 °C 14.1 °C 1016.1 hPa Calm     70 % 0.0 mm 0.0 W/m2 CLR
00:27 19.7 °C 14.1 °C 1016.1 hPa Calm     70 % 0.0 mm 0.0 W/m2 CLR
00:32 19.6 °C 14.2 °C 1016.1 hPa ESE 5.6 km/h 5.6 km/h 71 % 0.0 mm 0.0 W/m2 CLR
00:37 19.6 °C 13.9 °C 1016.1 hPa Calm     70 % 0.0 mm 0.0 W/m2 CLR
00:42 19.5 °C 14.1 °C 1016.1 hPa Calm     71 % 0.0 mm 0.0 W/m2 CLR
00:47 19.4 °C 14.0 °C 1016.1 hPa Calm     71 % 0.0 mm 0.0 W/m2 CLR
00:52 19.3 °C 13.9 °C 1016.1 hPa Calm     71 % 0.0 mm 0.0 W/m2 CLR
00:57 19.3 °C 13.9 °C 1016.5 hPa Calm     71 % 0.0 mm 0.0 W/m2 CLR
01:02 19.3 °C 13.9 °C 1016.5 hPa Calm     71 % 0.0 mm 0.0 W/m2 CLR
01:07 19.3 °C 14.2 °C 1016.5 hPa Calm     72 % 0.0 mm 0.0 W/m2 CLR
01:12 19.3 °C 14.1 °C 1016.1 hPa Calm     72 % 0.0 mm 0.0 W/m2 CLR
01:17 19.3 °C 14.1 °C 1016.1 hPa Calm     72 % 0.0 mm 0.0 W/m2 CLR
01:22 19.2 °C 14.1 °C 1016.1 hPa Calm     72 % 0.0 mm 0.0 W/m2 CLR
01:32 19.2 °C 14.1 °C 1016.1 hPa Calm     72 % 0.0 mm 0.0 W/m2 CLR
01:37 19.2 °C 14.1 °C 1016.1 hPa Calm     72 % 0.0 mm 0.0 W/m2 CLR
01:42 19.1 °C 13.9 °C 1016.1 hPa Calm     72 % 0.0 mm 0.0 W/m2 CLR
01:47 18.9 °C 13.7 °C 1016.1 hPa Calm     72 % 0.0 mm 0.0 W/m2 CLR
01:52 18.8 °C 13.9 °C 1016.1 hPa Calm     73 % 0.0 mm 0.0 W/m2 CLR
01:57 18.7 °C 13.6 °C 1015.8 hPa Calm     72 % 0.0 mm 0.0 W/m2 CLR
02:02 18.7 °C 13.7 °C 1015.8 hPa Calm     73 % 0.0 mm 0.0 W/m2 CLR
02:07 18.7 °C 13.7 °C 1016.1 hPa Calm     73 % 0.0 mm 0.0 W/m2 CLR
02:12 18.7 °C 13.7 °C 1015.8 hPa Calm     73 % 0.0 mm 0.0 W/m2 CLR
02:17 18.8 °C 13.8 °C 1015.8 hPa Calm     73 % 0.0 mm 0.0 W/m2 CLR
02:22 18.9 °C 13.7 °C 1016.1 hPa SE 5.6 km/h 5.6 km/h 72 % 0.0 mm 0.0 W/m2 CLR
02:27 18.8 °C 13.7 °C 1015.8 hPa Calm     72 % 0.0 mm 0.0 W/m2 CLR
02:32 18.8 °C 13.6 °C 1015.8 hPa ESE 7.4 km/h 7.4 km/h 72 % 0.0 mm 0.0 W/m2 CLR
02:37 18.7 °C 13.5 °C 1015.8 hPa Calm     72 % 0.0 mm 0.0 W/m2 CLR
02:42 18.4 °C 13.4 °C 1015.8 hPa Calm     73 % 0.0 mm 0.0 W/m2 CLR
02:47 18.3 °C 13.3 °C 1015.8 hPa Calm     73 % 0.0 mm 0.0 W/m2 CLR
02:52 18.2 °C 13.2 °C 1015.8 hPa Calm     73 % 0.0 mm 0.0 W/m2 CLR
02:57 17.9 °C 13.2 °C 1015.8 hPa Calm     74 % 0.0 mm 0.0 W/m2 CLR
03:02 17.8 °C 13.1 °C 1015.8 hPa Calm     74 % 0.0 mm 0.0 W/m2 CLR
03:07 17.7 °C 13.2 °C 1015.8 hPa Calm     75 % 0.0 mm 0.0 W/m2 CLR
03:12 17.8 °C 13.3 °C 1015.8 hPa Calm     75 % 0.0 mm 0.0 W/m2 CLR
03:17 17.9 °C 13.4 °C 1015.8 hPa Calm     75 % 0.0 mm 0.0 W/m2 CLR
03:22 17.7 °C 12.8 °C 1015.8 hPa Calm     73 % 0.0 mm 0.0 W/m2 CLR
03:27 17.6 °C 13.1 °C 1015.8 hPa Calm     75 % 0.0 mm 0.0 W/m2 CLR
03:32 17.4 °C 12.7 °C 1015.8 hPa Calm     74 % 0.0 mm 0.0 W/m2 CLR
03:37 17.1 °C 12.4 °C 1015.8 hPa Calm     74 % 0.0 mm 0.0 W/m2 CLR
03:42 16.9 °C 12.3 °C 1015.8 hPa Calm     74 % 0.0 mm 0.0 W/m2 CLR
03:47 16.6 °C 12.2 °C 1015.8 hPa Calm     75 % 0.0 mm 0.0 W/m2 CLR
03:52 16.4 °C 12.2 °C 1015.8 hPa Calm     76 % 0.0 mm 0.0 W/m2 CLR
03:57 16.2 °C 12.0 °C 1015.8 hPa Calm     76 % 0.0 mm 0.0 W/m2 CLR
04:02 16.1 °C 12.1 °C 1015.5 hPa Calm     77 % 0.0 mm 0.0 W/m2 CLR
04:07 16.0 °C 12.2 °C 1015.5 hPa Calm     78 % 0.0 mm 0.0 W/m2 CLR
04:12 15.9 °C 12.1 °C 1015.5 hPa Calm     78 % 0.0 mm 0.0 W/m2 CLR
04:17 15.8 °C 12.0 °C 1015.5 hPa Calm     78 % 0.0 mm 0.0 W/m2 CLR
04:22 15.8 °C 12.2 °C 1015.5 hPa Calm     79 % 0.0 mm 0.0 W/m2 CLR
04:27 15.7 °C 12.1 °C 1015.5 hPa Calm     79 % 0.0 mm 0.0 W/m2 CLR
04:32 15.5 °C 11.7 °C 1015.5 hPa Calm     78 % 0.0 mm 0.0 W/m2 CLR
04:37 15.4 °C 11.8 °C 1015.5 hPa Calm     79 % 0.0 mm 0.0 W/m2 CLR
04:42 15.3 °C 11.7 °C 1015.1 hPa Calm     79 % 0.0 mm 0.0 W/m2 CLR
04:47 15.3 °C 11.8 °C 1015.5 hPa Calm     80 % 0.0 mm 0.0 W/m2 CLR
04:52 15.3 °C 12.1 °C 1015.5 hPa Calm     81 % 0.0 mm 0.0 W/m2 CLR
04:58 15.3 °C 11.9 °C 1015.5 hPa Calm     80 % 0.0 mm 0.0 W/m2 CLR
05:03 15.3 °C 11.7 °C 1015.1 hPa Calm     79 % 0.0 mm 0.0 W/m2 CLR
05:08 15.2 °C 11.6 °C 1015.1 hPa Calm     79 % 0.0 mm 0.0 W/m2 CLR
05:13 15.1 °C 11.7 °C 1015.1 hPa Calm     80 % 0.0 mm 0.0 W/m2 CLR
05:18 15.1 °C 11.6 °C 1015.1 hPa Calm     80 % 0.0 mm 0.0 W/m2 CLR
05:23 15.1 °C 12.1 °C 1015.1 hPa NW 5.6 km/h 5.6 km/h 82 % 0.0 mm 0.0 W/m2 CLR
05:28 15.1 °C 11.9 °C 1015.1 hPa Calm     81 % 0.0 mm 0.0 W/m2 CLR
05:33 15.0 °C 11.6 °C 1015.1 hPa Calm     80 % 0.0 mm 0.0 W/m2 CLR
05:38 15.0 °C 11.6 °C 1015.1 hPa Calm     80 % 0.0 mm 0.0 W/m2 CLR
05:48 15.0 °C 11.6 °C 1015.1 hPa Calm     80 % 0.0 mm 0.0 W/m2 CLR
05:53 15.1 °C 11.8 °C 1015.1 hPa Calm     81 % 0.0 mm 0.0 W/m2 CLR
05:58 15.2 °C 11.7 °C 1015.1 hPa Calm     80 % 0.0 mm 0.0 W/m2 CLR
06:03 15.2 °C 11.8 °C 1015.1 hPa Calm     80 % 0.0 mm 0.0 W/m2 CLR
06:08 15.3 °C 11.7 °C 1015.1 hPa Calm     79 % 0.0 mm 0.0 W/m2 CLR
06:13 15.2 °C 11.6 °C 1015.1 hPa Calm     79 % 0.0 mm 0.0 W/m2 CLR
06:18 15.2 °C 11.6 °C 1014.8 hPa Calm     79 % 0.0 mm 0.0 W/m2 CLR
06:23 15.3 °C 11.5 °C 1014.8 hPa East 5.6 km/h 5.6 km/h 78 % 0.0 mm 0.0 W/m2 OVC
06:28 15.3 °C 11.4 °C 1014.8 hPa Calm     78 % 0.0 mm 0.0 W/m2 OVC
06:33 15.3 °C 11.5 °C 1014.8 hPa Calm     78 % 0.0 mm 0.0 W/m2 OVC
06:38 15.3 °C 11.3 °C 1014.8 hPa NW 11.1 km/h 11.1 km/h 77 % 0.0 mm 5.0 W/m2 OVC
06:43 15.2 °C 11.6 °C 1014.8 hPa NNW 5.6 km/h 5.6 km/h 79 % 0.0 mm 9.0 W/m2 BKN
06:48 15.3 °C 11.7 °C 1014.8 hPa Calm     79 % 0.0 mm 12.0 W/m2 BKN
06:53 15.6 °C 11.7 °C 1014.8 hPa Calm     78 % 0.0 mm 16.0 W/m2 BKN
06:58 15.7 °C 11.9 °C 1014.4 hPa Calm     78 % 0.0 mm 21.0 W/m2 BKN
06:59 15.8 °C 11.8 °C 1014.4 hPa Calm     77 % 0.0 mm 23.0 W/m2 BKN
07:04 15.9 °C 11.8 °C 1014.4 hPa Calm     77 % 0.0 mm 30.0 W/m2 BKN
07:09 16.1 °C 11.8 °C 1014.4 hPa Calm     76 % 0.0 mm 37.0 W/m2 BKN
07:14 16.2 °C 12.0 °C 1014.4 hPa Calm     76 % 0.0 mm 46.0 W/m2 SCT
07:19 16.3 °C 11.9 °C 1014.4 hPa Calm     75 % 0.0 mm 54.0 W/m2 SCT
07:24 16.4 °C 12.0 °C 1014.4 hPa Calm     75 % 0.0 mm 62.0 W/m2 SCT
07:29 16.6 °C 11.9 °C 1014.4 hPa Calm     74 % 0.0 mm 67.0 W/m2 FEW
07:34 16.7 °C 12.1 °C 1014.4 hPa Calm     74 % 0.0 mm 74.0 W/m2 FEW
07:39 16.8 °C 12.1 °C 1014.4 hPa Calm     74 % 0.0 mm 86.0 W/m2 FEW
07:44 16.9 °C 12.2 °C 1014.4 hPa Calm     74 % 0.0 mm 104.0 W/m2 FEW
07:49 17.0 °C 12.3 °C 1014.4 hPa Calm     74 % 0.0 mm 105.0 W/m2 CLR
07:54 17.2 °C 12.6 °C 1014.4 hPa Calm     74 % 0.0 mm 105.0 W/m2 CLR
07:59 17.4 °C 12.5 °C 1014.4 hPa Calm     73 % 0.0 mm 116.0 W/m2 CLR
08:04 17.6 °C 12.5 °C 1014.4 hPa Calm     72 % 0.0 mm 132.0 W/m2 CLR
08:09 17.8 °C 12.5 °C 1014.4 hPa Calm     71 % 0.0 mm 155.0 W/m2 CLR
08:14 18.2 °C 12.6 °C 1014.4 hPa Calm     70 % 0.0 mm 178.0 W/m2 CLR
08:19 18.4 °C 12.7 °C 1014.8 hPa Calm     69 % 0.0 mm 229.0 W/m2 CLR
08:24 18.7 °C 12.7 °C 1014.8 hPa Calm     68 % 0.0 mm 213.0 W/m2 CLR
08:30 19.1 °C 12.8 °C 1014.4 hPa Calm     67 % 0.0 mm 174.0 W/m2 CLR
08:35 19.3 °C 13.1 °C 1014.4 hPa Calm     67 % 0.0 mm 155.0 W/m2 CLR
08:40 19.4 °C 13.2 °C 1014.4 hPa Calm     67 % 0.0 mm 130.0 W/m2 CLR
08:45 19.6 °C 13.3 °C 1014.4 hPa Calm     67 % 0.0 mm 144.0 W/m2 CLR
08:50 19.6 °C 13.3 °C 1014.4 hPa ENE 5.6 km/h 5.6 km/h 67 % 0.0 mm 149.0 W/m2 CLR
08:55 19.5 °C 13.7 °C 1014.4 hPa Calm     69 % 0.0 mm 142.0 W/m2 CLR
09:00 19.5 °C 14.1 °C 1014.4 hPa East 8.0 km/h 8.0 km/h 71 % 0.0 mm 190.0 W/m2 CLR
09:05 19.7 °C 14.3 °C 1014.4 hPa ESE 9.7 km/h 9.7 km/h 71 % 0.0 mm 250.0 W/m2 CLR
09:10 19.9 °C 14.3 °C 1014.4 hPa ESE 11.1 km/h 11.1 km/h 70 % 0.0 mm 283.0 W/m2 CLR
09:15 20.1 °C 14.2 °C 1014.1 hPa East 11.1 km/h 11.1 km/h 69 % 0.0 mm 234.0 W/m2 CLR
09:20 20.3 °C 14.4 °C 1014.4 hPa Calm     69 % 0.0 mm 239.0 W/m2 CLR
09:25 20.6 °C 14.4 °C 1014.4 hPa Calm     68 % 0.0 mm 352.0 W/m2 CLR
09:30 20.9 °C 14.3 °C 1014.4 hPa Calm     66 % 0.0 mm 374.0 W/m2 CLR
09:35 21.3 °C 14.2 °C 1014.4 hPa Calm     64 % 0.0 mm 420.0 W/m2 CLR
09:40 21.7 °C 14.1 °C 1014.4 hPa Calm     62 % 0.0 mm 522.0 W/m2 CLR
09:45 22.0 °C 14.4 °C 1014.4 hPa Calm     62 % 0.0 mm 471.0 W/m2 CLR
09:50 22.4 °C 14.2 °C 1014.4 hPa Calm     60 % 0.0 mm 504.0 W/m2 CLR
09:55 22.5 °C 13.8 °C 1014.4 hPa Calm     58 % 0.0 mm 390.0 W/m2 CLR
10:00 22.7 °C 13.8 °C 1014.4 hPa Calm     57 % 0.0 mm 422.0 W/m2 CLR
10:06 23.1 °C 14.3 °C 1014.4 hPa Calm     58 % 0.0 mm 390.0 W/m2 CLR
10:11 23.2 °C 14.7 °C 1014.1 hPa Calm     59 % 0.0 mm 534.0 W/m2 CLR
10:16 23.5 °C 14.2 °C 1014.1 hPa Calm     56 % 0.0 mm 693.0 W/m2 CLR
10:21 23.8 °C 13.7 °C 1014.1 hPa Calm     53 % 0.0 mm 731.0 W/m2 CLR
10:26 24.1 °C 13.3 °C 1014.1 hPa Calm     51 % 0.0 mm 570.0 W/m2 CLR
10:31 24.3 °C 12.9 °C 1014.1 hPa Calm     49 % 0.0 mm 589.0 W/m2 CLR
10:36 24.4 °C 11.7 °C 1014.1 hPa Calm     45 % 0.0 mm 515.0 W/m2 CLR
10:41 24.8 °C 12.1 °C 1013.4 hPa Calm     45 % 0.0 mm 364.0 W/m2 CLR
10:46 24.9 °C 11.8 °C 1014.1 hPa NW 9.7 km/h 9.7 km/h 44 % 0.0 mm 457.0 W/m2 CLR
10:51 25.0 °C 10.8 °C 1013.8 hPa Calm     41 % 0.0 mm 436.0 W/m2 CLR
10:56 25.3 °C 9.9 °C 1014.1 hPa Calm     38 % 0.0 mm 561.0 W/m2 CLR
11:01 25.7 °C 5.3 °C 1014.1 hPa SW 18.5 km/h 18.5 km/h 27 % 0.0 mm 519.0 W/m2 CLR
11:06 25.8 °C 4.3 °C 1014.1 hPa South 24.1 km/h 24.1 km/h 25 % 0.0 mm 418.0 W/m2 CLR
11:11 25.8 °C 4.8 °C 1014.1 hPa South 12.9 km/h 12.9 km/h 26 % 0.0 mm 443.0 W/m2 CLR
11:16 25.8 °C 4.8 °C 1014.1 hPa South 20.4 km/h 20.4 km/h 26 % 0.0 mm 490.0 W/m2 CLR
11:21 25.9 °C 4.9 °C 1014.1 hPa South 13.0 km/h 13.0 km/h 26 % 0.0 mm 512.0 W/m2 CLR
11:26 26.0 °C 5.0 °C 1013.8 hPa South 7.4 km/h 7.4 km/h 26 % 0.0 mm 459.0 W/m2 CLR
11:31 26.3 °C 4.7 °C 1013.8 hPa SSW 17.7 km/h 17.7 km/h 25 % 0.0 mm 466.0 W/m2 CLR
11:36 26.2 °C 4.6 °C 1013.8 hPa SSE 14.8 km/h 14.8 km/h 25 % 0.0 mm 411.0 W/m2 CLR
11:41 26.1 °C 4.5 °C 1013.8 hPa South 11.1 km/h 11.1 km/h 25 % 0.0 mm 499.0 W/m2 CLR
11:46 26.3 °C 4.7 °C 1013.8 hPa South 11.3 km/h 11.3 km/h 25 % 0.0 mm 615.0 W/m2 CLR
11:51 26.7 °C 4.4 °C 1013.8 hPa South 20.4 km/h 20.4 km/h 24 % 0.0 mm 896.0 W/m2 CLR
11:56 26.6 °C 3.7 °C 1013.8 hPa ESE 24.1 km/h 24.1 km/h 23 % 0.0 mm 914.0 W/m2 CLR
12:01 26.9 °C 4.1 °C 1013.8 hPa South 22.2 km/h 22.2 km/h 23 % 0.0 mm 745.0 W/m2 CLR
12:06 26.6 °C 3.7 °C 1013.8 hPa South 25.9 km/h 25.9 km/h 23 % 0.0 mm 422.0 W/m2 CLR
12:11 26.3 °C 3.6 °C 1013.8 hPa South 20.4 km/h 20.4 km/h 23 % 0.0 mm 464.0 W/m2 CLR
12:16 26.4 °C 3.0 °C 1013.8 hPa SE 16.7 km/h 16.7 km/h 22 % 0.0 mm 403.0 W/m2 CLR
12:21 26.4 °C 2.3 °C 1013.8 hPa South 20.4 km/h 20.4 km/h 21 % 0.0 mm 352.0 W/m2 CLR
12:26 26.6 °C 3.1 °C 1013.8 hPa South 19.3 km/h 19.3 km/h 22 % 0.0 mm 858.0 W/m2 CLR
12:31 26.6 °C 2.4 °C 1013.8 hPa South 16.7 km/h 16.7 km/h 21 % 0.0 mm 954.0 W/m2 CLR
12:36 26.6 °C 1.8 °C 1013.8 hPa SE 18.5 km/h 18.5 km/h 20 % 0.0 mm 330.0 W/m2 CLR
12:41 26.9 °C 2.0 °C 1013.4 hPa SSE 11.1 km/h 11.1 km/h 20 % 0.0 mm 573.0 W/m2 CLR
12:46 27.1 °C 3.5 °C 1013.4 hPa ESE 20.4 km/h 20.4 km/h 22 % 0.0 mm 550.0 W/m2 CLR
12:51 26.8 °C 3.3 °C 1013.4 hPa South 16.7 km/h 16.7 km/h 22 % 0.0 mm 496.0 W/m2 CLR
12:56 27.1 °C 3.5 °C 1013.4 hPa SSE 16.7 km/h 16.7 km/h 22 % 0.0 mm 1106.0 W/m2 CLR
13:01 27.0 °C 3.4 °C 1013.4 hPa East 9.3 km/h 9.3 km/h 22 % 0.0 mm 977.0 W/m2 CLR
13:06 27.3 °C 3.7 °C 1013.1 hPa SSE 14.5 km/h 14.5 km/h 22 % 0.0 mm 998.0 W/m2 CLR
13:11 27.5 °C 3.9 °C 1013.1 hPa SSE 18.5 km/h 18.5 km/h 22 % 0.0 mm 990.0 W/m2 CLR
13:16 27.6 °C 5.2 °C 1013.1 hPa SE 11.3 km/h 11.3 km/h 24 % 0.0 mm 949.0 W/m2 CLR
13:21 27.8 °C 3.5 °C 1013.1 hPa South 13.0 km/h 13.0 km/h 21 % 0.0 mm 942.0 W/m2 CLR
13:26 27.9 °C 4.2 °C 1013.1 hPa Calm     22 % 0.0 mm 937.0 W/m2 CLR
13:31 28.4 °C 4.6 °C 1012.8 hPa SSE 18.5 km/h 18.5 km/h 22 % 0.0 mm 939.0 W/m2 CLR
13:36 28.2 °C 5.7 °C 1013.1 hPa SE 17.7 km/h 17.7 km/h 24 % 0.0 mm 930.0 W/m2 CLR
13:41 28.1 °C 5.0 °C 1013.1 hPa ESE 18.5 km/h 18.5 km/h 23 % 0.0 mm 935.0 W/m2 CLR
13:46 28.1 °C 5.6 °C 1013.1 hPa SE 16.7 km/h 16.7 km/h 24 % 0.0 mm 912.0 W/m2 CLR
13:51 27.9 °C 6.6 °C 1012.8 hPa SE 20.4 km/h 20.4 km/h 26 % 0.0 mm 977.0 W/m2 CLR
13:56 27.9 °C 7.2 °C 1013.1 hPa SE 20.9 km/h 20.9 km/h 27 % 0.0 mm 967.0 W/m2 CLR
14:01 27.6 °C 7.4 °C 1012.8 hPa ESE 25.7 km/h 25.7 km/h 28 % 0.0 mm 1013.0 W/m2 CLR
14:06 27.6 °C 7.4 °C 1012.8 hPa ESE 20.4 km/h 20.4 km/h 28 % 0.0 mm 976.0 W/m2 CLR
14:11 27.7 °C 8.0 °C 1012.8 hPa ESE 27.8 km/h 27.8 km/h 29 % 0.0 mm 979.0 W/m2 CLR
14:16 27.8 °C 7.6 °C 1012.8 hPa SE 24.1 km/h 24.1 km/h 28 % 0.0 mm 995.0 W/m2 CLR
14:21 28.1 °C 7.9 °C 1012.8 hPa South 18.5 km/h 18.5 km/h 28 % 0.0 mm 974.0 W/m2 CLR
14:26 28.2 °C 7.9 °C 1012.8 hPa SSE 18.5 km/h 18.5 km/h 28 % 0.0 mm 995.0 W/m2 CLR
14:31 28.0 °C 7.3 °C 1012.8 hPa SSE 27.8 km/h 27.8 km/h 27 % 0.0 mm 1069.0 W/m2 CLR
14:36 27.9 °C 8.7 °C 1012.8 hPa SE 24.1 km/h 24.1 km/h 30 % 0.0 mm 998.0 W/m2 CLR
14:41 27.9 °C 8.2 °C 1012.8 hPa SE 25.9 km/h 25.9 km/h 29 % 0.0 mm 974.0 W/m2 CLR
14:46 28.0 °C 9.3 °C 1012.4 hPa SSE 24.1 km/h 24.1 km/h 31 % 0.0 mm 960.0 W/m2 CLR
14:49 27.8 °C 9.6 °C 1012.8 hPa SSE 31.5 km/h 31.5 km/h 32 % 0.0 mm 953.0 W/m2 CLR
14:54 27.7 °C 9.5 °C 1012.4 hPa SSE 22.2 km/h 22.2 km/h 32 % 0.0 mm 944.0 W/m2 CLR
14:59 27.8 °C 10.1 °C 1012.4 hPa ESE 35.2 km/h 35.2 km/h 33 % 0.0 mm 967.0 W/m2 CLR
15:04 27.5 °C 9.8 °C 1012.4 hPa SE 29.0 km/h 29.0 km/h 33 % 0.0 mm 958.0 W/m2 CLR
15:09 27.5 °C 9.8 °C 1012.4 hPa ESE 32.2 km/h 32.2 km/h 33 % 0.0 mm 914.0 W/m2 CLR
15:19 27.4 °C 10.2 °C 1012.4 hPa SE 29.6 km/h 29.6 km/h 34 % 0.0 mm 911.0 W/m2 CLR
15:24 27.4 °C 10.1 °C 1012.4 hPa South 24.1 km/h 24.1 km/h 34 % 0.0 mm 951.0 W/m2 CLR
15:25 27.4 °C 10.2 °C 1012.4 hPa ESE 20.4 km/h 20.4 km/h 34 % 0.0 mm 970.0 W/m2 CLR
15:30 27.4 °C 10.1 °C 1012.4 hPa SE 35.2 km/h 35.2 km/h 34 % 0.0 mm 970.0 W/m2 CLR
15:35 27.3 °C 10.5 °C 1012.4 hPa ESE 18.5 km/h 18.5 km/h 35 % 0.0 mm 960.0 W/m2 CLR
15:40 27.5 °C 10.2 °C 1012.4 hPa ESE 25.7 km/h 25.7 km/h 34 % 0.0 mm 930.0 W/m2 CLR
15:45 27.4 °C 9.7 °C 1012.4 hPa SE 29.6 km/h 29.6 km/h 33 % 0.0 mm 912.0 W/m2 CLR
15:50 27.3 °C 9.7 °C 1012.4 hPa SE 31.5 km/h 31.5 km/h 33 % 0.0 mm 867.0 W/m2 CLR
15:55 27.3 °C 8.7 °C 1012.4 hPa SE 29.6 km/h 29.6 km/h 31 % 0.0 mm 851.0 W/m2 CLR
16:00 27.3 °C 7.7 °C 1012.4 hPa SSE 18.5 km/h 18.5 km/h 29 % 0.0 mm 831.0 W/m2 CLR
16:05 27.2 °C 7.6 °C 1012.4 hPa SE 25.9 km/h 25.9 km/h 29 % 0.0 mm 819.0 W/m2 CLR
16:10 27.3 °C 7.2 °C 1012.4 hPa SE 31.5 km/h 31.5 km/h 28 % 0.0 mm 793.0 W/m2 CLR
16:15 27.3 °C 7.7 °C 1012.1 hPa SSE 29.6 km/h 29.6 km/h 29 % 0.0 mm 772.0 W/m2 CLR
16:20 27.6 °C 7.4 °C 1012.1 hPa SE 27.8 km/h 27.8 km/h 28 % 0.0 mm 724.0 W/m2 CLR
16:25 27.3 °C 7.7 °C 1012.1 hPa SE 31.5 km/h 31.5 km/h 29 % 0.0 mm 763.0 W/m2 CLR
16:30 27.2 °C 8.1 °C 1012.1 hPa SE 20.9 km/h 20.9 km/h 30 % 0.0 mm 796.0 W/m2 CLR
16:35 27.4 °C 6.8 °C 1012.1 hPa SE 25.9 km/h 25.9 km/h 27 % 0.0 mm 292.0 W/m2 CLR
16:40 27.2 °C 6.6 °C 1012.1 hPa SSE 25.9 km/h 25.9 km/h 27 % 0.0 mm 330.0 W/m2 CLR
16:45 26.9 °C 6.3 °C 1012.1 hPa ESE 20.9 km/h 20.9 km/h 27 % 0.0 mm 431.0 W/m2 CLR
16:50 27.3 °C 6.6 °C 1012.1 hPa ESE 22.5 km/h 22.5 km/h 27 % 0.0 mm 431.0 W/m2 CLR
16:55 27.2 °C 6.1 °C 1012.1 hPa SE 18.5 km/h 18.5 km/h 26 % 0.0 mm 431.0 W/m2 CLR
17:00 27.1 °C 5.9 °C 1012.1 hPa ESE 22.2 km/h 22.2 km/h 26 % 0.0 mm 826.0 W/m2 CLR
17:05 27.3 °C 6.1 °C 1012.1 hPa SE 29.6 km/h 29.6 km/h 26 % 0.0 mm 761.0 W/m2 CLR
17:10 27.3 °C 6.1 °C 1012.1 hPa SE 31.5 km/h 31.5 km/h 26 % 0.0 mm 717.0 W/m2 CLR
17:15 27.2 °C 6.1 °C 1012.1 hPa SE 18.5 km/h 18.5 km/h 26 % 0.0 mm 666.0 W/m2 CLR
17:20 27.4 °C 6.2 °C 1012.1 hPa SSE 22.5 km/h 22.5 km/h 26 % 0.0 mm 654.0 W/m2 CLR
17:25 27.2 °C 6.1 °C 1012.1 hPa ESE 27.8 km/h 27.8 km/h 26 % 0.0 mm 638.0 W/m2 CLR
17:30 27.1 °C 6.5 °C 1012.1 hPa ESE 20.4 km/h 20.4 km/h 27 % 0.0 mm 633.0 W/m2 CLR
17:35 27.1 °C 6.4 °C 1012.1 hPa SE 29.6 km/h 29.6 km/h 27 % 0.0 mm 606.0 W/m2 CLR
17:40 27.1 °C 6.5 °C 1012.1 hPa ESE 18.5 km/h 18.5 km/h 27 % 0.0 mm 592.0 W/m2 CLR
17:45 27.2 °C 6.6 °C 1012.1 hPa ESE 22.2 km/h 22.2 km/h 27 % 0.0 mm 578.0 W/m2 CLR
17:50 27.4 °C 6.8 °C 1012.1 hPa SE 32.2 km/h 32.2 km/h 27 % 0.0 mm 563.0 W/m2 CLR
17:55 27.1 °C 7.0 °C 1012.1 hPa SSE 29.0 km/h 29.0 km/h 28 % 0.0 mm 545.0 W/m2 CLR
18:00 27.0 °C 6.9 °C 1012.1 hPa SE 29.6 km/h 29.6 km/h 28 % 0.0 mm 529.0 W/m2 CLR
18:05 27.1 °C 7.0 °C 1012.1 hPa SSE 31.5 km/h 31.5 km/h 28 % 0.0 mm 513.0 W/m2 CLR
18:10 26.8 °C 6.8 °C 1012.1 hPa SSE 24.1 km/h 24.1 km/h 28 % 0.0 mm 497.0 W/m2 CLR
18:15 26.7 °C 6.2 °C 1012.1 hPa SSE 31.5 km/h 31.5 km/h 27 % 0.0 mm 483.0 W/m2 CLR
18:20 26.6 °C 6.6 °C 1012.1 hPa South 14.8 km/h 14.8 km/h 28 % 0.0 mm 468.0 W/m2 CLR
18:25 27.0 °C 6.4 °C 1012.1 hPa SE 11.1 km/h 11.9 km/h 27 % 0.0 mm 452.0 W/m2 CLR
18:30 26.8 °C 6.2 °C 1012.1 hPa SE 24.1 km/h 24.1 km/h 27 % 0.0 mm 438.0 W/m2 CLR
18:35 26.7 °C 6.1 °C 1012.1 hPa ESE 18.5 km/h 18.5 km/h 27 % 0.0 mm 422.0 W/m2 CLR
18:40 26.4 °C 5.4 °C 1012.1 hPa SE 25.9 km/h 25.9 km/h 26 % 0.0 mm 404.0 W/m2 CLR
18:45 26.4 °C 5.9 °C 1012.1 hPa SE 19.3 km/h 19.3 km/h 27 % 0.0 mm 390.0 W/m2 CLR
18:50 26.4 °C 5.3 °C 1012.1 hPa SE 24.1 km/h 24.1 km/h 26 % 0.0 mm 374.0 W/m2 CLR
18:55 26.2 °C 5.2 °C 1012.1 hPa SSE 29.6 km/h 29.6 km/h 26 % 0.0 mm 362.0 W/m2 CLR
19:00 26.1 °C 5.7 °C 1012.1 hPa SSE 20.4 km/h 20.4 km/h 27 % 0.0 mm 345.0 W/m2 CLR
19:05 26.0 °C 5.6 °C 1012.1 hPa SSE 22.2 km/h 22.2 km/h 27 % 0.0 mm 330.0 W/m2 CLR
19:10 26.1 °C 6.1 °C 1012.1 hPa South 18.5 km/h 18.5 km/h 28 % 0.0 mm 315.0 W/m2 CLR
19:15 26.1 °C 6.2 °C 1012.1 hPa SSE 20.4 km/h 20.4 km/h 28 % 0.0 mm 301.0 W/m2 CLR
19:20 26.1 °C 6.1 °C 1012.1 hPa SE 24.1 km/h 24.1 km/h 28 % 0.0 mm 281.0 W/m2 CLR
19:25 26.1 °C 6.2 °C 1012.1 hPa SSE 18.5 km/h 18.5 km/h 28 % 0.0 mm 267.0 W/m2 CLR
19:30 26.1 °C 6.6 °C 1012.1 hPa SE 14.8 km/h 14.8 km/h 29 % 0.0 mm 251.0 W/m2 CLR
19:35 25.6 °C 7.2 °C 1012.1 hPa SE 25.9 km/h 25.9 km/h 31 % 0.0 mm 239.0 W/m2 CLR
19:40 25.4 °C 7.5 °C 1012.1 hPa SE 18.5 km/h 18.5 km/h 32 % 0.0 mm 223.0 W/m2 CLR
19:46 25.3 °C 7.8 °C 1012.1 hPa SE 25.9 km/h 25.9 km/h 33 % 0.0 mm 204.0 W/m2 CLR
19:51 25.2 °C 7.8 °C 1012.1 hPa ESE 18.5 km/h 18.5 km/h 33 % 0.0 mm 188.0 W/m2 CLR
19:56 25.2 °C 7.7 °C 1012.1 hPa SSE 20.4 km/h 20.4 km/h 33 % 0.0 mm 172.0 W/m2 CLR
20:01 25.1 °C 7.7 °C 1012.1 hPa SSE 19.3 km/h 19.3 km/h 33 % 0.0 mm 156.0 W/m2 CLR
20:06 25.1 °C 7.7 °C 1012.1 hPa South 13.0 km/h 13.0 km/h 33 % 0.0 mm 139.0 W/m2 CLR
20:11 25.2 °C 6.8 °C 1012.1 hPa SE 16.1 km/h 16.1 km/h 31 % 0.0 mm 125.0 W/m2 CLR
20:16 24.9 °C 8.0 °C 1012.1 hPa SE 14.8 km/h 14.8 km/h 34 % 0.0 mm 109.0 W/m2 CLR
20:21 24.8 °C 8.3 °C 1012.4 hPa SE 13.0 km/h 13.0 km/h 35 % 0.0 mm 95.0 W/m2 CLR
20:26 24.6 °C 8.5 °C 1012.4 hPa SE 18.5 km/h 18.5 km/h 36 % 0.0 mm 81.0 W/m2 FEW
20:31 24.2 °C 8.6 °C 1012.4 hPa SSE 16.1 km/h 16.1 km/h 37 % 0.0 mm 47.0 W/m2 SCT
20:36 24.0 °C 8.4 °C 1012.4 hPa SSE 14.8 km/h 14.8 km/h 37 % 0.0 mm 30.0 W/m2 BKN
20:41 23.8 °C 8.7 °C 1012.8 hPa SSE 14.8 km/h 14.8 km/h 38 % 0.0 mm 25.0 W/m2 BKN
20:46 23.7 °C 8.5 °C 1012.8 hPa SSE 16.7 km/h 16.7 km/h 38 % 0.0 mm 16.0 W/m2 BKN
20:51 23.5 °C 8.7 °C 1012.8 hPa SSE 13.0 km/h 13.0 km/h 39 % 0.0 mm 9.0 W/m2 BKN
20:56 23.3 °C 8.9 °C 1013.1 hPa SE 14.8 km/h 14.8 km/h 40 % 0.0 mm 7.0 W/m2 BKN
21:01 23.1 °C 9.1 °C 1013.1 hPa SSE 14.8 km/h 14.8 km/h 41 % 0.0 mm 5.0 W/m2 OVC
21:06 22.9 °C 9.3 °C 1013.1 hPa SE 7.4 km/h 7.4 km/h 42 % 0.0 mm 5.0 W/m2 OVC
21:11 22.7 °C 9.5 °C 1013.1 hPa SSE 11.1 km/h 11.1 km/h 43 % 0.0 mm 0.0 W/m2 OVC
21:16 22.6 °C 9.7 °C 1013.1 hPa SSE 7.4 km/h 7.4 km/h 44 % 0.0 mm 0.0 W/m2 OVC
21:21 22.4 °C 9.6 °C 1013.1 hPa SE 5.6 km/h 5.6 km/h 44 % 0.0 mm 0.0 W/m2 OVC
21:26 22.3 °C 9.4 °C 1013.1 hPa SSE 9.3 km/h 9.3 km/h 44 % 0.0 mm 0.0 W/m2 OVC
21:31 22.2 °C 9.3 °C 1013.4 hPa SSE 9.3 km/h 9.3 km/h 44 % 0.0 mm 0.0 W/m2 OVC
21:36 22.1 °C 9.6 °C 1013.4 hPa Calm     45 % 0.0 mm 0.0 W/m2 CLR
21:41 22.1 °C 9.6 °C 1013.4 hPa SE 7.4 km/h 7.4 km/h 45 % 0.0 mm 0.0 W/m2 CLR
21:46 21.9 °C 9.4 °C 1013.4 hPa South 5.6 km/h   45 % 0.0 mm 0.0 W/m2 CLR
21:51 21.8 °C 9.7 °C 1013.8 hPa SE 5.6 km/h 5.6 km/h 46 % 0.0 mm 0.0 W/m2 CLR
21:56 21.7 °C 10.2 °C 1013.8 hPa SE 9.3 km/h 9.3 km/h 48 % 0.0 mm 0.0 W/m2 CLR
22:01 21.5 °C 10.0 °C 1013.8 hPa ESE 5.6 km/h 5.6 km/h 48 % 0.0 mm 0.0 W/m2 CLR
22:06 21.4 °C 10.2 °C 1013.8 hPa Calm     49 % 0.0 mm 0.0 W/m2 CLR
22:11 21.2 °C 10.1 °C 1013.8 hPa Calm     49 % 0.0 mm 0.0 W/m2 CLR
22:16 21.2 °C 10.0 °C 1013.8 hPa Calm     49 % 0.0 mm 0.0 W/m2 CLR
22:21 21.1 °C 10.2 °C 1013.8 hPa SSE 7.4 km/h 7.4 km/h 50 % 0.0 mm 0.0 W/m2 CLR
22:26 20.9 °C 10.4 °C 1014.1 hPa SSE 9.3 km/h 9.3 km/h 51 % 0.0 mm 0.0 W/m2 CLR
22:31 20.7 °C 10.5 °C 1014.1 hPa Calm     52 % 0.0 mm 0.0 W/m2 CLR
22:36 20.6 °C 10.4 °C 1014.1 hPa Calm     52 % 0.0 mm 0.0 W/m2 CLR
22:41 20.4 °C 10.6 °C 1014.4 hPa Calm     53 % 0.0 mm 0.0 W/m2 CLR
22:46 20.3 °C 10.7 °C 1014.4 hPa Calm     54 % 0.0 mm 0.0 W/m2 CLR
22:51 20.2 °C 10.6 °C 1014.4 hPa Calm     54 % 0.0 mm 0.0 W/m2 CLR
22:56 20.2 °C 10.8 °C 1014.4 hPa SE 6.4 km/h 6.4 km/h 55 % 0.0 mm 0.0 W/m2 CLR
23:01 20.1 °C 11.0 °C 1014.4 hPa SSE 5.6 km/h 5.6 km/h 56 % 0.0 mm 0.0 W/m2 CLR
23:06 19.9 °C 11.2 °C 1014.4 hPa SE 5.6 km/h 5.6 km/h 57 % 0.0 mm 0.0 W/m2 CLR
23:12 19.9 °C 11.4 °C 1014.4 hPa ESE 7.4 km/h 7.4 km/h 58 % 0.0 mm 0.0 W/m2 CLR
23:17 19.9 °C 11.6 °C 1014.4 hPa SE 5.6 km/h 5.6 km/h 59 % 0.0 mm 0.0 W/m2 CLR
23:22 19.9 °C 11.7 °C 1014.4 hPa SE 6.4 km/h 6.4 km/h 59 % 0.0 mm 0.0 W/m2 CLR
23:27 19.8 °C 11.3 °C 1014.4 hPa ESE 5.6 km/h 5.6 km/h 58 % 0.0 mm 0.0 W/m2 CLR
23:32 19.7 °C 11.4 °C 1014.4 hPa Calm     59 % 0.0 mm 0.0 W/m2 CLR
23:37 19.4 °C 11.5 °C 1014.4 hPa Calm     60 % 0.0 mm 0.0 W/m2 CLR
23:42 19.3 °C 11.6 °C 1014.4 hPa Calm     61 % 0.0 mm 0.0 W/m2 CLR
23:47 19.3 °C 11.3 °C 1014.4 hPa Calm     60 % 0.0 mm 0.0 W/m2 CLR
23:52 19.1 °C 11.2 °C 1014.4 hPa Calm     60 % 0.0 mm 0.0 W/m2 CLR
23:57 18.8 °C 11.2 °C 1014.4 hPa Calm     61 % 0.0 mm 0.0 W/m2 CLR
Lo Temps de Massalio
Compliments of Weather Underground - 1.25 mb